Regional Weather Roundup
Issued by NWS Charleston, SC

Current Version | Previous Version | Text Only | Print | Product List | Glossary Off
Versions: 1 2 3 4 5 6 7 8 9 10 11 12 13 14 15 16 17 18 19 20 21 22 23 24 25 26 27 28 29 30 31 32 33 34 35 36 37 38 39 40 41 42 43 44 45 46 47 48 49 50

000
ASUS42 KCHS 180727
RWRCHS

REGIONAL WEATHER ROUNDUP
NATIONAL WEATHER SERVICE CHARLESTON SC
300 AM EDT FRI AUG 18 2017

NOTE: "FAIR" INDICATES FEW OR NO CLOUDS BELOW 12,000 FEET WITH NO
SIGNIFICANT WEATHER AND/OR OBSTRUCTIONS TO VISIBILITY.

NOT ALL STATIONS ARE QUALITY CONTROLLED. USE DATA WITH CAUTION...
ESPECIALLY DEWPOINT OBSERVATIONS.

SCZ027-030-031-034>040-042>050-180800-
...SOUTHEAST SOUTH CAROLINA...

CITY           SKY/WX    TMP DP  RH WIND       PRES   REMARKS
N CHARLESTON   PTCLDY    82  78  88 SW5       29.95F HX  91
WATERFRONT PRK   N/A    N/A N/A N/A VRB3      29.81S
JOHNS ISLAND   FAIR      84  81  89 SW6       29.96S HX  98
PINOPOLIS        N/A     81  79  94 SW5       29.89F
MONCKS CORNER  FAIR      77  77 100 CALM      29.95F
SUMMERVILLE    FAIR      79  77  94 CALM      29.96F
BEAUFORT MCAS  CLEAR     81  78  91 SW6       29.96F
BEAUFORT ARPT  FAIR      81  77  89 SW5       29.96S
HILTON HEAD IS CLEAR     82  79  89 SW5       29.97S HX  93
WALTERBORO     SUNNY     79  77  94 SW3       29.96F
ALLENDALE      NOT AVBL

...SOUTHERN MIDLANDS AND PEE DEE...

CITY           SKY/WX    TMP DP  RH WIND       PRES   REMARKS
GEORGETOWN     FAIR      81  79  94 SW7       29.96F
KINGSTREE      FAIR      77  75  94 CALM      29.94F
ORANGEBURG     CLEAR     78  75  90 SW5       29.95F
BARNWELL       FAIR      81  77  89 S3        29.96S
AIKEN          FAIR      75  73  94 W3        30.00S
MANNING        FAIR      79  73  83 NW6       29.95S
COLUMBIA       CLEAR     80  75  84 CALM      29.94S
SUMTER         CLEAR     79  75  87 S5        29.92F
FLORENCE       CLEAR     77  77 100 S5        29.94F
MYRTLE BEACH   NOT AVBL
N MYRTLE BEACH CLEAR     83  80  91 SW12      29.94F HX  95

$$

GAZ063-065-086>088-099>101-113>116-118-119-134>141-150-180800-
...SOUTHEAST GEORGIA...

CITY           SKY/WX    TMP DP  RH WIND       PRES   REMARKS
SAVANNAH ARPT  CLEAR     79  76  90 SW6       29.97F
HUNTER AAF     NOT AVBL
FORT STEWART   CLEAR     78  74  86 SW5       29.95F
STATESBORO     CLEAR     79  75  89 CALM      29.97S
SYLVANIA       SUNNY     78  77  96 CALM      29.98S
CLAXTON        FAIR      79  76  90 CALM      29.97F

...CSRA...CENTRAL AND FAR SOUTHEAST GEORGIA...

CITY           SKY/WX    TMP DP  RH WIND       PRES   REMARKS
THOMSON        CLEAR     76  74  92 CALM      30.02R
AUGUSTA-BUSH   CLEAR     79  76  90 CALM      29.95S
AUGUSTA-DANIEL CLEAR     82  72  71 VRB3      29.96F
SWAINSBORO     FAIR      77  77 100 CALM      29.99S
VIDALIA        CLEAR     79  77  94 SW5       29.99S
EASTMAN        FAIR      76  76 100 CALM      30.01F
HAZLEHURST     FAIR      79  73  81 CALM      29.98S
ALMA           CLEAR     77  74  90 CALM      29.99F
WAYCROSS       CLEAR     78  75  90 SW3       29.99F
JESUP          FAIR      77  72  83 CALM      29.99S
BAXLEY         FAIR      73  73 100 CALM      29.98F
BRUNSWICK      CLOUDY    77  73  88 CALM      29.99F
SAINT SIMONS   CLOUDY    81  77  88 SW7       29.98F

$$

SCZ027-028-034-036>038-045-046-048>050-GAZ119-141-180800-
...LAKE AND SUPPLEMENTAL COASTAL OBSERVATIONS...

STATION/POSITION TIME  TEMP    WIND        PRES    WAVE   SWELL
                       AIR SEA DIR/SP/G            HT/PER HT/PER/DIR
                 (UTC) (F)     (DEG/KT/KT) (MB)    (FT/S) (FT/S/D)
WINYAH BAY       0645   82     240/  4     1014.0F
LAKE MURRAY      0650   83     240/  5/  6 1012.9F
ACE BASIN NERRS  0645   81        CALM     1014.0F
FORT PULASKI     0700   82 86  240/  5/  7 1014.9
SAPELO ISLAND    0700   81     210/  9     1015.0

$$

ANZ835-935-AMZ111-154-330-350-352-354-370-450-454-472-180800-
...C-MAN AND BUOY OBSERVATIONS...

STATION/POSITION TIME  TEMP    WIND        PRES    WAVE   SWELL
                       AIR SEA DIR/SP/G            HT/PER HT/PER/DIR
                 (UTC) (F)     (DEG/KT/KT) (MB)    (FT/S) (FT/S/D)
BUOY 41004       0710   84 84  210/ 12/ 14 1014.3
BUOY 41008       0650   85 85  200/ 12/ 14 1014.8F
FOLLY BEACH CMAN 0700   85     210/ 15/ 17 1014.9F
CAPERS NEARSHORE 0708   83 85  240/ 16/ 19 1014.0F
FRIPP NEARSHORE  0708   85     230/ 12/ 16 1014.0F


STATION/POSITION TIME  TEMP    WIND        PRES    WAVE   SWELL
                       AIR SEA DIR/SP/G            HT/PER HT/PER/DIR
                 (UTC) (F)     (DEG/KT/KT) (MB)    (FT/S) (FT/S/D)
5E ST. MARYS GA  0700      84                N/A     2/ 8
FRYING PAN BUOY  0710   84 84  210/ 12/ 14 1014.2
BUOY 41025       0650   84 86  180/ 14/ 19 1014.6F   2/ 7   2/ 80/ 7
CAPE LOOKOUT NC  0700   83     180/ 14/ 15 1014.0F
BUOY 41002       0650   80 84  190/ 14/ 17 1016.2F   2/ 5   2/100/ 7
BUOY 41010       0710   85 85  190/ 10/ 12 1015.6
ST AUGUSTINE FL  0700   77 81  250/  6/  8 1015.7F


$$



USA.gov is the U.S. government's official web portal to all federal, state and local government web resources and services.